Time,TemperatureF,DewpointF,PressureIn,WindDirection,WindDirectionDegrees,WindSpeedMPH,WindSpeedGustMPH,Humidity,HourlyPrecipIn,Conditions,Clouds,dailyrainin,SoftwareType,DateUTC
2013-06-14 00:02:00,49.1,37.8,-100.00,North,-999,0.0,0.0,65,0.00,,,-99.99,FreeWX-Wi 1.01,2013-06-14 04:02:00,
2013-06-14 00:13:00,49.3,38.5,-100.00,North,-999,0.0,0.0,66,0.00,,,-99.99,FreeWX-Wi 1.01,2013-06-14 04:13:00,
2013-06-14 00:23:00,49.3,38.5,-100.00,North,-999,0.0,0.0,66,0.00,,,-99.99,FreeWX-Wi 1.01,2013-06-14 04:23:00,
2013-06-14 00:33:00,49.3,38.8,-100.00,North,-999,0.0,4.9,67,0.00,,,-99.99,FreeWX-Wi 1.01,2013-06-14 04:33:00,
2013-06-14 00:43:00,49.3,38.8,-100.00,North,-999,0.0,3.6,67,0.00,,,-99.99,FreeWX-Wi 1.01,2013-06-14 04:43:00,
2013-06-14 00:52:00,49.3,39.2,-100.00,North,-999,0.0,3.6,68,0.00,,,-99.99,FreeWX-Wi 1.01,2013-06-14 04:52:00,
2013-06-14 01:03:00,49.3,39.2,-100.00,North,-999,0.0,3.1,68,0.00,,,-99.99,FreeWX-Wi 1.01,2013-06-14 05:03:00,
2013-06-14 01:12:00,49.3,39.2,-100.00,North,-999,0.0,4.0,68,0.00,,,-99.99,FreeWX-Wi 1.01,2013-06-14 05:12:00,
2013-06-14 01:22:00,49.1,39.4,-100.00,North,-999,0.0,3.6,69,0.00,,,-99.99,FreeWX-Wi 1.01,2013-06-14 05:22:00,
2013-06-14 01:32:00,49.1,39.4,-100.00,North,-999,0.0,3.6,69,0.00,,,-99.99,FreeWX-Wi 1.01,2013-06-14 05:32:00,
2013-06-14 01:42:00,48.7,39.0,-100.00,North,-999,0.0,3.6,69,0.00,,,-99.99,FreeWX-Wi 1.01,2013-06-14 05:42:00,
2013-06-14 01:53:00,48.6,38.8,-100.00,North,-999,0.0,3.6,69,0.00,,,-99.99,FreeWX-Wi 1.01,2013-06-14 05:53:00,
2013-06-14 02:03:00,48.4,38.7,-100.00,North,-999,0.0,4.5,69,0.00,,,-99.99,FreeWX-Wi 1.01,2013-06-14 06:03:00,
2013-06-14 02:12:00,48.4,38.7,-100.00,North,-999,0.0,4.0,69,0.00,,,-99.99,FreeWX-Wi 1.01,2013-06-14 06:12:00,
2013-06-14 02:23:00,48.4,39.0,-100.00,North,-999,0.0,4.9,70,0.00,,,-99.99,FreeWX-Wi 1.01,2013-06-14 06:23:00,
2013-06-14 02:32:00,48.4,39.4,-100.00,North,-999,0.0,2.7,71,0.00,,,-99.99,FreeWX-Wi 1.01,2013-06-14 06:32:00,
2013-06-14 02:42:00,48.4,39.4,-100.00,North,-999,0.0,3.1,71,0.00,,,-99.99,FreeWX-Wi 1.01,2013-06-14 06:42:00,
2013-06-14 02:53:00,48.4,39.7,-100.00,North,-999,0.0,3.1,72,0.00,,,-99.99,FreeWX-Wi 1.01,2013-06-14 06:53:00,
2013-06-14 03:02:00,48.4,39.7,-100.00,North,-999,0.0,2.7,72,0.00,,,-99.99,FreeWX-Wi 1.01,2013-06-14 07:02:00,
2013-06-14 03:13:00,48.6,39.9,-100.00,North,-999,0.0,0.0,72,0.00,,,-99.99,FreeWX-Wi 1.01,2013-06-14 07:13:00,
2013-06-14 03:22:00,48.6,40.3,-100.00,North,-999,0.0,0.0,73,0.00,,,-99.99,FreeWX-Wi 1.01,2013-06-14 07:22:00,
2013-06-14 03:33:00,48.7,40.8,-100.00,North,-999,0.0,0.0,74,0.00,,,-99.99,FreeWX-Wi 1.01,2013-06-14 07:33:00,
2013-06-14 03:42:00,48.7,40.8,-100.00,North,-999,0.0,3.1,74,0.00,,,-99.99,FreeWX-Wi 1.01,2013-06-14 07:42:00,
2013-06-14 03:53:00,48.9,41.4,-100.00,North,-999,0.0,2.7,75,0.00,,,-99.99,FreeWX-Wi 1.01,2013-06-14 07:53:00,
2013-06-14 04:02:00,49.1,41.9,-100.00,North,-999,0.0,0.0,76,0.00,,,-99.99,FreeWX-Wi 1.01,2013-06-14 08:02:00,
2013-06-14 04:12:00,49.1,41.9,-100.00,North,-999,0.0,3.6,76,0.00,,,-99.99,FreeWX-Wi 1.01,2013-06-14 08:12:00,
2013-06-14 04:23:00,49.3,42.4,-100.00,North,-999,0.0,3.1,77,0.00,,,-99.99,FreeWX-Wi 1.01,2013-06-14 08:23:00,
2013-06-14 04:32:00,49.5,42.8,-100.00,North,-999,0.0,2.2,78,0.00,,,-99.99,FreeWX-Wi 1.01,2013-06-14 08:32:00,
2013-06-14 04:43:00,49.5,42.8,-100.00,North,-999,0.0,3.1,78,0.00,,,-99.99,FreeWX-Wi 1.01,2013-06-14 08:43:00,
2013-06-14 04:52:00,49.5,43.2,-100.00,North,-999,0.0,0.0,79,0.00,,,-99.99,FreeWX-Wi 1.01,2013-06-14 08:52:00,
2013-06-14 05:03:00,49.5,43.2,-100.00,North,-999,0.0,0.0,79,0.00,,,-99.99,FreeWX-Wi 1.01,2013-06-14 09:03:00,
2013-06-14 05:12:00,49.5,43.5,-100.00,North,-999,0.0,3.1,80,0.00,,,-99.99,FreeWX-Wi 1.01,2013-06-14 09:12:00,
2013-06-14 05:23:00,49.5,43.5,-100.00,North,-999,0.0,4.0,80,0.00,,,-99.99,FreeWX-Wi 1.01,2013-06-14 09:23:00,
2013-06-14 05:33:00,49.5,43.5,-100.00,North,-999,0.0,3.1,80,0.00,,,-99.99,FreeWX-Wi 1.01,2013-06-14 09:33:00,
2013-06-14 05:43:00,49.5,43.9,-100.00,North,-999,0.0,3.1,81,0.00,,,-99.99,FreeWX-Wi 1.01,2013-06-14 09:43:00,
2013-06-14 05:53:00,49.3,43.3,-100.00,North,-999,0.0,3.6,80,0.00,,,-99.99,FreeWX-Wi 1.01,2013-06-14 09:53:00,
2013-06-14 06:03:00,49.3,43.3,-100.00,North,-999,0.0,2.2,80,0.00,,,-99.99,FreeWX-Wi 1.01,2013-06-14 10:03:00,
2013-06-14 06:13:00,49.3,43.7,-100.00,North,-999,0.0,0.0,81,0.00,,,-99.99,FreeWX-Wi 1.01,2013-06-14 10:13:00,
2013-06-14 06:22:00,49.1,43.9,-100.00,North,-999,0.0,0.0,82,0.00,,,-99.99,FreeWX-Wi 1.01,2013-06-14 10:22:00,
2013-06-14 06:32:00,49.3,44.1,-100.00,North,-999,0.0,0.0,82,0.00,,,-99.99,FreeWX-Wi 1.01,2013-06-14 10:32:00,
2013-06-14 06:43:00,49.3,44.4,-100.00,North,-999,0.0,0.0,83,0.00,,,-99.99,FreeWX-Wi 1.01,2013-06-14 10:43:00,
2013-06-14 06:53:00,49.5,44.6,-100.00,North,-999,0.0,0.0,83,0.00,,,-99.99,FreeWX-Wi 1.01,2013-06-14 10:53:00,
2013-06-14 07:03:00,49.5,44.6,-100.00,North,-999,0.0,0.0,83,0.00,,,-99.99,FreeWX-Wi 1.01,2013-06-14 11:03:00,
2013-06-14 07:13:00,49.5,44.2,-100.00,North,-999,0.0,0.0,82,0.00,,,-99.99,FreeWX-Wi 1.01,2013-06-14 11:13:00,
2013-06-14 07:22:00,49.5,44.6,-100.00,North,-999,0.0,2.2,83,0.00,,,-99.99,FreeWX-Wi 1.01,2013-06-14 11:22:00,
2013-06-14 07:32:00,49.3,44.1,-100.00,North,-999,0.0,0.0,82,0.00,,,-99.99,FreeWX-Wi 1.01,2013-06-14 11:32:00,
2013-06-14 07:43:00,49.3,44.4,-100.00,North,-999,0.0,2.7,83,0.00,,,-99.99,FreeWX-Wi 1.01,2013-06-14 11:43:00,
2013-06-14 07:53:00,49.3,44.4,-100.00,North,-999,0.0,0.0,83,0.00,,,-99.99,FreeWX-Wi 1.01,2013-06-14 11:53:00,
2013-06-14 08:03:00,49.5,44.6,-100.00,North,-999,0.0,0.0,83,0.00,,,-99.99,FreeWX-Wi 1.01,2013-06-14 12:03:00,
2013-06-14 08:13:00,49.5,44.2,-100.00,North,-999,0.0,0.0,82,0.00,,,-99.99,FreeWX-Wi 1.01,2013-06-14 12:13:00,
2013-06-14 08:23:00,49.3,44.1,-100.00,North,-999,0.0,0.0,82,0.00,,,-99.99,FreeWX-Wi 1.01,2013-06-14 12:23:00,
2013-06-14 08:33:00,49.5,44.6,-100.00,North,-999,0.0,0.0,83,0.00,,,-99.99,FreeWX-Wi 1.01,2013-06-14 12:33:00,
2013-06-14 08:43:00,49.5,44.6,-100.00,North,-999,0.0,0.0,83,0.00,,,-99.99,FreeWX-Wi 1.01,2013-06-14 12:43:00,
2013-06-14 08:52:00,49.6,44.8,-100.00,North,-999,0.0,0.0,83,0.00,,,-99.99,FreeWX-Wi 1.01,2013-06-14 12:52:00,
2013-06-14 09:03:00,49.8,44.6,-100.00,North,-999,0.0,0.0,82,0.00,,,-99.99,FreeWX-Wi 1.01,2013-06-14 13:03:00,
2013-06-14 09:12:00,50.0,44.8,-100.00,North,-999,0.0,0.0,82,0.00,,,-99.99,FreeWX-Wi 1.01,2013-06-14 13:12:00,
2013-06-14 09:22:00,50.4,44.8,-100.00,North,-999,0.0,0.0,81,0.00,,,-99.99,FreeWX-Wi 1.01,2013-06-14 13:22:00,
2013-06-14 09:33:00,50.9,45.3,-100.00,North,-999,0.0,0.0,81,0.00,,,-99.99,FreeWX-Wi 1.01,2013-06-14 13:33:00,
2013-06-14 09:43:00,51.4,45.5,-100.00,North,-999,0.0,0.0,80,0.00,,,-99.99,FreeWX-Wi 1.01,2013-06-14 13:43:00,
2013-06-14 09:53:00,51.6,45.3,-100.00,North,-999,0.0,3.6,79,0.00,,,-99.99,FreeWX-Wi 1.01,2013-06-14 13:53:00,
2013-06-14 10:03:00,52.2,45.9,-100.00,North,-999,0.0,2.2,79,0.00,,,-99.99,FreeWX-Wi 1.01,2013-06-14 14:03:00,
2013-06-14 10:13:00,53.1,46.8,-100.00,North,-999,0.0,0.0,79,0.00,,,-99.99,FreeWX-Wi 1.01,2013-06-14 14:13:00,
2013-06-14 10:22:00,54.0,47.3,-100.00,North,-999,0.0,2.7,78,0.00,,,-99.99,FreeWX-Wi 1.01,2013-06-14 14:22:00,
2013-06-14 10:32:00,54.5,46.8,-100.00,North,-999,0.0,0.0,75,0.00,,,-99.99,FreeWX-Wi 1.01,2013-06-14 14:32:00,
2013-06-14 10:43:00,55.0,45.9,-100.00,North,-999,0.0,0.0,71,0.00,,,-99.99,FreeWX-Wi 1.01,2013-06-14 14:43:00,
2013-06-14 10:53:00,55.6,44.4,-100.00,North,-999,0.0,0.0,66,0.00,,,-99.99,FreeWX-Wi 1.01,2013-06-14 14:53:00,
2013-06-14 11:03:00,55.8,43.3,-100.00,North,-999,0.0,0.0,63,0.00,,,-99.99,FreeWX-Wi 1.01,2013-06-14 15:03:00,
2013-06-14 11:12:00,56.1,42.8,-100.00,North,-999,0.0,0.0,61,0.00,,,-99.99,FreeWX-Wi 1.01,2013-06-14 15:12:00,
2013-06-14 11:23:00,56.3,42.1,-100.00,North,-999,0.0,0.0,59,0.00,,,-99.99,FreeWX-Wi 1.01,2013-06-14 15:23:00,
2013-06-14 11:33:00,56.5,41.0,-100.00,North,-999,0.0,0.0,56,0.00,,,-99.99,FreeWX-Wi 1.01,2013-06-14 15:33:00,
2013-06-14 11:43:00,56.7,39.2,-100.00,North,-999,0.0,0.0,52,0.00,,,-99.99,FreeWX-Wi 1.01,2013-06-14 15:43:00,
2013-06-14 11:53:00,57.0,39.0,-100.00,North,-999,0.0,0.0,51,0.00,,,-99.99,FreeWX-Wi 1.01,2013-06-14 15:53:00,
2013-06-14 12:02:00,57.7,39.2,-100.00,North,-999,0.0,0.0,50,0.00,,,-99.99,FreeWX-Wi 1.01,2013-06-14 16:02:00,
2013-06-14 12:12:00,59.2,38.5,-100.00,North,-999,0.0,0.0,46,0.00,,,-99.99,FreeWX-Wi 1.01,2013-06-14 16:12:00,
2013-06-14 12:23:00,59.4,37.9,-100.00,North,-999,0.0,0.0,45,0.00,,,-99.99,FreeWX-Wi 1.01,2013-06-14 16:23:00,
2013-06-14 12:33:00,59.2,37.9,-100.00,North,-999,0.0,2.2,45,0.00,,,-99.99,FreeWX-Wi 1.01,2013-06-14 16:33:00,
2013-06-14 12:43:00,59.5,37.6,-100.00,North,-999,0.0,4.9,44,0.00,,,-99.99,FreeWX-Wi 1.01,2013-06-14 16:43:00,
2013-06-14 12:52:00,59.5,36.5,-100.00,North,-999,0.0,5.4,42,0.00,,,-99.99,FreeWX-Wi 1.01,2013-06-14 16:52:00,
2013-06-14 13:02:00,59.5,36.5,-100.00,North,-999,0.0,0.0,42,0.00,,,-99.99,FreeWX-Wi 1.01,2013-06-14 17:02:00,
2013-06-14 13:12:00,59.5,36.5,-100.00,North,-999,0.0,0.0,42,0.00,,,-99.99,FreeWX-Wi 1.01,2013-06-14 17:12:00,
2013-06-14 13:23:00,59.5,37.6,-100.00,North,-999,0.0,0.0,44,0.00,,,-99.99,FreeWX-Wi 1.01,2013-06-14 17:23:00,
2013-06-14 13:33:00,60.3,37.0,-100.00,North,-999,0.0,0.0,42,0.00,,,-99.99,FreeWX-Wi 1.01,2013-06-14 17:33:00,
2013-06-14 13:42:00,60.6,37.4,-100.00,North,-999,0.0,0.0,42,0.00,,,-99.99,FreeWX-Wi 1.01,2013-06-14 17:42:00,
2013-06-14 13:53:00,61.3,36.9,-100.00,North,-999,0.0,0.0,40,0.00,,,-99.99,FreeWX-Wi 1.01,2013-06-14 17:53:00,
2013-06-14 14:03:00,62.1,36.9,-100.00,North,-999,0.0,0.0,39,0.00,,,-99.99,FreeWX-Wi 1.01,2013-06-14 18:03:00,
2013-06-14 14:12:00,62.2,36.3,-100.00,North,-999,0.0,0.0,38,0.00,,,-99.99,FreeWX-Wi 1.01,2013-06-14 18:12:00,
2013-06-14 14:22:00,62.8,36.9,-100.00,North,-999,0.0,0.0,38,0.00,,,-99.99,FreeWX-Wi 1.01,2013-06-14 18:22:00,
2013-06-14 14:32:00,63.0,34.9,-100.00,North,-999,0.0,4.0,35,0.00,,,-99.99,FreeWX-Wi 1.01,2013-06-14 18:32:00,
2013-06-14 14:43:00,63.0,37.0,-100.00,North,-999,0.0,0.0,38,0.00,,,-99.99,FreeWX-Wi 1.01,2013-06-14 18:43:00,
2013-06-14 14:53:00,63.0,37.0,-100.00,North,-999,0.0,0.0,38,0.00,,,-99.99,FreeWX-Wi 1.01,2013-06-14 18:53:00,
2013-06-14 15:03:00,62.8,36.9,-100.00,North,-999,0.0,0.0,38,0.00,,,-99.99,FreeWX-Wi 1.01,2013-06-14 19:03:00,
2013-06-14 15:12:00,63.1,37.0,-100.00,North,-999,0.0,0.0,38,0.00,,,-99.99,FreeWX-Wi 1.01,2013-06-14 19:12:00,
2013-06-14 15:23:00,63.5,35.4,-100.00,North,-999,0.0,3.6,35,0.00,,,-99.99,FreeWX-Wi 1.01,2013-06-14 19:23:00,
2013-06-14 15:32:00,63.5,36.7,-100.00,North,-999,0.0,0.0,37,0.00,,,-99.99,FreeWX-Wi 1.01,2013-06-14 19:32:00,
2013-06-14 15:42:00,63.5,36.7,-100.00,North,-999,0.0,0.0,37,0.00,,,-99.99,FreeWX-Wi 1.01,2013-06-14 19:42:00,
2013-06-14 15:52:00,64.0,37.2,-100.00,North,-999,0.0,0.0,37,0.00,,,-99.99,FreeWX-Wi 1.01,2013-06-14 19:52:00,
2013-06-14 16:02:00,64.6,34.0,-100.00,North,-999,0.0,3.6,32,0.00,,,-99.99,FreeWX-Wi 1.01,2013-06-14 20:02:00,
2013-06-14 16:13:00,64.8,34.2,-100.00,North,-999,0.0,2.2,32,0.00,,,-99.99,FreeWX-Wi 1.01,2013-06-14 20:13:00,
2013-06-14 16:22:00,64.4,36.1,-100.00,North,-999,0.0,0.0,35,0.00,,,-99.99,FreeWX-Wi 1.01,2013-06-14 20:22:00,
2013-06-14 16:33:00,64.4,36.1,-100.00,North,-999,0.0,0.0,35,0.00,,,-99.99,FreeWX-Wi 1.01,2013-06-14 20:33:00,
2013-06-14 16:42:00,64.8,36.5,-100.00,North,-999,0.0,0.0,35,0.00,,,-99.99,FreeWX-Wi 1.01,2013-06-14 20:42:00,
2013-06-14 16:53:00,64.8,36.5,-100.00,North,-999,0.0,0.0,35,0.00,,,-99.99,FreeWX-Wi 1.01,2013-06-14 20:53:00,
2013-06-14 17:03:00,65.1,36.9,-100.00,North,-999,0.0,0.0,35,0.00,,,-99.99,FreeWX-Wi 1.01,2013-06-14 21:03:00,
2013-06-14 17:13:00,65.1,36.9,-100.00,North,-999,0.0,0.0,35,0.00,,,-99.99,FreeWX-Wi 1.01,2013-06-14 21:13:00,
2013-06-14 17:22:00,65.1,34.5,-100.00,North,-999,0.0,0.0,32,0.00,,,-99.99,FreeWX-Wi 1.01,2013-06-14 21:22:00,
2013-06-14 17:33:00,65.3,33.1,-100.00,North,-999,0.0,2.2,30,0.00,,,-99.99,FreeWX-Wi 1.01,2013-06-14 21:33:00,
2013-06-14 17:43:00,65.5,33.3,-100.00,North,-999,0.0,0.0,30,0.00,,,-99.99,FreeWX-Wi 1.01,2013-06-14 21:43:00,
2013-06-14 17:53:00,65.1,32.9,-100.00,North,-999,0.0,0.0,30,0.00,,,-99.99,FreeWX-Wi 1.01,2013-06-14 21:53:00,
2013-06-14 18:02:00,64.9,32.7,-100.00,North,-999,0.0,0.0,30,0.00,,,-99.99,FreeWX-Wi 1.01,2013-06-14 22:02:00,
2013-06-14 18:13:00,64.9,32.7,-100.00,North,-999,0.0,0.0,30,0.00,,,-99.99,FreeWX-Wi 1.01,2013-06-14 22:13:00,
2013-06-14 18:23:00,64.8,34.2,-100.00,North,-999,0.0,0.0,32,0.00,,,-99.99,FreeWX-Wi 1.01,2013-06-14 22:23:00,
2013-06-14 18:33:00,64.4,34.0,-100.00,North,-999,0.0,0.0,32,0.00,,,-99.99,FreeWX-Wi 1.01,2013-06-14 22:33:00,
2013-06-14 18:43:00,64.2,36.0,-100.00,North,-999,0.0,0.0,35,0.00,,,-99.99,FreeWX-Wi 1.01,2013-06-14 22:43:00,
2013-06-14 18:53:00,64.2,33.8,-100.00,North,-999,0.0,0.0,32,0.00,,,-99.99,FreeWX-Wi 1.01,2013-06-14 22:53:00,
2013-06-14 19:03:00,64.2,38.1,-100.00,North,-999,0.0,0.0,38,0.00,,,-99.99,FreeWX-Wi 1.01,2013-06-14 23:03:00,
2013-06-14 19:12:00,64.2,38.7,-100.00,North,-999,0.0,0.0,39,0.00,,,-99.99,FreeWX-Wi 1.01,2013-06-14 23:12:00,
2013-06-14 19:23:00,64.0,37.9,-100.00,North,-999,0.0,0.0,38,0.00,,,-99.99,FreeWX-Wi 1.01,2013-06-14 23:23:00,
2013-06-14 19:33:00,63.3,36.7,-100.00,North,-999,0.0,0.0,37,0.00,,,-99.99,FreeWX-Wi 1.01,2013-06-14 23:33:00,
2013-06-14 19:43:00,62.8,36.9,-100.00,North,-999,0.0,0.0,38,0.00,,,-99.99,FreeWX-Wi 1.01,2013-06-14 23:43:00,
2013-06-14 19:52:00,62.4,36.5,-100.00,North,-999,0.0,0.0,38,0.00,,,-99.99,FreeWX-Wi 1.01,2013-06-14 23:52:00,
2013-06-14 20:03:00,61.9,37.2,-100.00,North,-999,0.0,0.0,40,0.00,,,-99.99,FreeWX-Wi 1.01,2013-06-15 00:03:00,
2013-06-14 20:12:00,61.5,37.6,-100.00,North,-999,0.0,0.0,41,0.00,,,-99.99,FreeWX-Wi 1.01,2013-06-15 00:12:00,
2013-06-14 20:23:00,61.0,37.8,-100.00,North,-999,0.0,0.0,42,0.00,,,-99.99,FreeWX-Wi 1.01,2013-06-15 00:23:00,
2013-06-14 20:33:00,60.8,38.1,-100.00,North,-999,0.0,0.0,43,0.00,,,-99.99,FreeWX-Wi 1.01,2013-06-15 00:33:00,
2013-06-14 20:43:00,60.8,38.1,-100.00,North,-999,0.0,0.0,43,0.00,,,-99.99,FreeWX-Wi 1.01,2013-06-15 00:43:00,
2013-06-14 20:53:00,60.6,37.9,-100.00,North,-999,0.0,0.0,43,0.00,,,-99.99,FreeWX-Wi 1.01,2013-06-15 00:53:00,
2013-06-14 21:03:00,60.4,37.8,-100.00,North,-999,0.0,0.0,43,0.00,,,-99.99,FreeWX-Wi 1.01,2013-06-15 01:03:00,
2013-06-14 21:12:00,60.1,38.7,-100.00,North,-999,0.0,0.0,45,0.00,,,-99.99,FreeWX-Wi 1.01,2013-06-15 01:12:00,
2013-06-14 21:23:00,59.5,39.9,-100.00,North,-999,0.0,0.0,48,0.00,,,-99.99,FreeWX-Wi 1.01,2013-06-15 01:23:00,
2013-06-14 21:33:00,59.4,40.3,-100.00,North,-999,0.0,0.0,49,0.00,,,-99.99,FreeWX-Wi 1.01,2013-06-15 01:33:00,
2013-06-14 21:43:00,59.2,40.1,-100.00,North,-999,0.0,0.0,49,0.00,,,-99.99,FreeWX-Wi 1.01,2013-06-15 01:43:00,
2013-06-14 21:52:00,59.0,39.4,-100.00,North,-999,0.0,0.0,48,0.00,,,-99.99,FreeWX-Wi 1.01,2013-06-15 01:52:00,
2013-06-14 22:03:00,58.8,39.2,-100.00,North,-999,0.0,0.0,48,0.00,,,-99.99,FreeWX-Wi 1.01,2013-06-15 02:03:00,
2013-06-14 22:12:00,58.6,39.0,-100.00,North,-999,0.0,0.0,48,0.00,,,-99.99,FreeWX-Wi 1.01,2013-06-15 02:12:00,
2013-06-14 22:22:00,58.3,39.2,-100.00,North,-999,0.0,0.0,49,0.00,,,-99.99,FreeWX-Wi 1.01,2013-06-15 02:22:00,
2013-06-14 22:33:00,57.9,38.8,-100.00,North,-999,0.0,0.0,49,0.00,,,-99.99,FreeWX-Wi 1.01,2013-06-15 02:33:00,
2013-06-14 22:43:00,57.6,38.5,-100.00,North,-999,0.0,0.0,49,0.00,,,-99.99,FreeWX-Wi 1.01,2013-06-15 02:43:00,
2013-06-14 22:53:00,57.4,38.8,-100.00,North,-999,0.0,0.0,50,0.00,,,-99.99,FreeWX-Wi 1.01,2013-06-15 02:53:00,
2013-06-14 23:02:00,57.0,38.5,-100.00,North,-999,0.0,0.0,50,0.00,,,-99.99,FreeWX-Wi 1.01,2013-06-15 03:02:00,
2013-06-14 23:13:00,56.8,38.8,-100.00,North,-999,0.0,0.0,51,0.00,,,-99.99,FreeWX-Wi 1.01,2013-06-15 03:13:00,
2013-06-14 23:23:00,56.7,38.7,-100.00,North,-999,0.0,0.0,51,0.00,,,-99.99,FreeWX-Wi 1.01,2013-06-15 03:23:00,
2013-06-14 23:33:00,56.5,39.0,-100.00,North,-999,0.0,0.0,52,0.00,,,-99.99,FreeWX-Wi 1.01,2013-06-15 03:33:00,
2013-06-14 23:42:00,56.1,38.7,-100.00,North,-999,0.0,0.0,52,0.00,,,-99.99,FreeWX-Wi 1.01,2013-06-15 03:42:00,
2013-06-14 23:53:00,55.9,38.5,-100.00,North,-999,0.0,0.0,52,0.00,,,-99.99,FreeWX-Wi 1.01,2013-06-15 03:53:00,